Regional Weather Roundup
Issued by NWS

Home | Current Version | Previous Version | Text Only | Print | Product List | Glossary Off
Versions: 1 2 3 4 5 6 7 8 9 10 11 12 13 14 15 16 17 18 19 20 21 22 23 24 25 26 27 28 29 30 31 32 33 34 35 36 37 38 39 40 41 42 43 44 45 46 47 48 49 50

000
ASUS45 KABQ 280601
RWRNM
NEW MEXICO REGIONAL WEATHER ROUNDUP
NATIONAL WEATHER SERVICE ALBUQUERQUE NM
1200 AM MDT FRI APR 28 2017

NOTE: "FAIR" MEANS FEW OR NO CLOUDS BELOW 12,000 FEET AGL WITH NO
       SIGNIFICANT WEATHER OR OBSTRUCTIONS TO VISION.

      THIS PRODUCT IS RELEASED AS TWO VERSIONS.  ONE VERSION NEAR
      THE TOP OF THE HOUR CONTAINING PRELIMINARY DATA FROM ALBUQUERQUE
      AND OTHER STATIONS.  A FINAL VERSION WITH ADDITIONAL DATA IS
      ISSUED ABOUT 10 MINUTES AFTER THE HOUR.

NMZ501-503-504-510>518-280700-
NORTHWEST PLATEAU/NORTHCENTRAL MOUNTAINS

CITY           SKY/WX    TMP DP  RH WIND       PRES   REMARKS
FARMINGTON     FAIR      44  21  40 N7        29.72F
6HR MIN TEMP:  44; 6HR MAX TEMP:  59;

LOS ALAMOS     FAIR      41  24  50 N5        29.81R
SANTA FE       CLOUDY    46  30  53 N13       29.77R
6HR MIN TEMP:  46; 6HR MAX TEMP:  62;

TAOS             N/A     39  19  45 W15       29.78R WCI  31
ANGEL FIRE     CLOUDY    35  22  59 SW13G22   29.80R WCI  27

$$
NMZ402-403-502-505>509-280700-
WESTCENTRAL MOUNTAINS/SOUTHWEST MOUNTAINS

CITY           SKY/WX    TMP DP  RH WIND       PRES   REMARKS
GALLUP         CLOUDY    48  14  25 E15       29.79S
6HR MIN TEMP:  48; 6HR MAX TEMP:  65;

GRANTS         CLOUDY    49   9  19 NW16G25   29.81R
SILVER CITY    FAIR      64  32  30 NW8       29.80S

$$
NMZ407-409-411-412-280700-
SOUTHERN DESERTS

CITY           SKY/WX    TMP DP  RH WIND       PRES   REMARKS
DEMING         FAIR      70  34  26 W18       29.71F
6HR MIN TEMP:  70; 6HR MAX TEMP:  82;

LAS CRUCES     FAIR      71  31  22 W12       29.74F
HOLLOMAN AFB   FAIR      74  28  18 SW5       29.71R
ALAMOGORDO     FAIR      73  28  19 SW12G17   29.70R
T OR C         FAIR      68  24  19 CALM      29.69R
6HR MIN TEMP:  67; 6HR MAX TEMP:  81;


$$
NMZ519>523-280700-
CENTRAL VALLEYS/CENTRAL HIGHLANDS

CITY           SKY/WX    TMP DP  RH WIND       PRES   REMARKS
ALBUQUERQUE    MOCLDY    56  23  27 N7        29.74F
6HR MIN TEMP:  56; 6HR MAX TEMP:  66;

MORIARTY ARPT  FAIR      51  29  42 NW17      29.75S
6HR MIN TEMP:  49; 6HR MAX TEMP:  66;

CLINES CORNERS CLOUDY    43  28  55 W8        29.78R
6HR MIN TEMP:  41; 6HR MAX TEMP:  61;

BELEN          CLOUDY    59  32  35 N12       29.73S
6HR MIN TEMP:  56; 6HR MAX TEMP:  76;

SOCORRO        FAIR      66  26  21 CALM      29.70R
6HR MIN TEMP:  65; 6HR MAX TEMP:  80;


$$
NMZ524>526-539-540-280700-
SOUTHCENTRAL MOUNTAINS

CITY           SKY/WX    TMP DP  RH WIND       PRES   REMARKS
RUIDOSO        NOT AVBL

$$
NMZ527>531-280700-
NORTHEAST HIGHLANDS/NORTHEAST PLAINS

CITY           SKY/WX    TMP DP  RH WIND       PRES   REMARKS
LAS VEGAS      FAIR      44  23  43 NW17G25   29.71S
6HR MIN TEMP:  37; 6HR MAX TEMP:  59;

RATON          FAIR      39  24  55 NE6       29.67S WCI  35
6HR MIN TEMP:  39; 6HR MAX TEMP:  58;

CLAYTON        MOCLDY    46  38  73 N9        29.64R
6HR MIN TEMP:  42; 6HR MAX TEMP:  63;


$$
NMZ532>537-280700-
EASTCENTRAL PLAINS

CITY           SKY/WX    TMP DP  RH WIND       PRES   REMARKS
SANTA ROSA     FAIR      50  29  44 W7        29.66R
TUCUMCARI      FAIR      57  32  38 NW10      29.61R
6HR MIN TEMP:  56; 6HR MAX TEMP:  78;

CANNON AFB     MOCLDY    58  35  41 N12       29.63R
6HR MIN TEMP:  58; 6HR MAX TEMP:  80;

CLOVIS AIRPORT FAIR      57  36  44 NE12      29.63R

$$
NMZ028-029-538-280700-
SOUTHEAST PLAINS

CITY           SKY/WX    TMP DP  RH WIND       PRES   REMARKS
ROSWELL        FAIR      72  29  20 N10         N/A
6HR MIN TEMP:  72; 6HR MAX TEMP:  88;

ARTESIA        FAIR      77  30  18 W13       29.56R
CARLSBAD       FAIR      78  26  14 SW6       29.55R
6HR MIN TEMP:  78; 6HR MAX TEMP:  90;

HOBBS          FAIR      73  28  19 SW9       29.56S


$$



USA.gov is the U.S. government's official web portal to all federal, state and local government web resources and services.